Weather History for KPEQ - April, 2014

Change the Weather History Date:

Tuesday, April 22, 2014

  Actual Average Record
Temperature  
Mean Temperature 74 °F -  
Max Temperature 89 °F 84 °F 103 °F (1965)
Min Temperature 59 °F 48 °F 35 °F (1972)
Cooling Degree Days 9    
Growing Degree Days 24 (Base 50)    
Moisture  
Dew Point 52 °F    
Average Humidity 52    
Maximum Humidity 75    
Minimum Humidity 23    
Precipitation  
Precipitation 0.71 in - - ()
Sea Level Pressure  
Sea Level Pressure 30.01 in    
Wind  
Wind Speed 12 mph (East)    
Max Wind Speed 30 mph    
Max Gust Speed 39 mph    
Visibility 10 miles    
Events Rain , Thunderstorm    
Averages and records for this station are not official NWS values.
T = Trace of Precipitation, MM = Missing Value Source: NWS Daily Summary

Daily Weather History Graph

Daily Weather History Graph

Search for Another Location

Airport or City:

Trip Planner

Search our weather history database for the weather conditions in past years. The results will help you decide how hot, cold, wet, or windy it might be!

Date:

Astronomy

Apr. 22, 2014 Rise Set
Actual Time 7:18 AM CDT 8:27 PM CDT
Civil Twilight 6:52 AM CDT 8:52 PM CDT
Nautical Twilight 6:22 AM CDT 9:22 PM CDT
Astronomical Twilight 5:51 AM CDT 9:53 PM CDT
Moon 2:42 AM CDT (4/22) 1:56 PM CDT (4/22)
Length of Visible Light 13h 59m
Length of Day
13h 09m
Last Quarter, 46% of the Moon is Illuminated
Apr 22
Last Quarter
Apr 29
New
May 6
First Quarter
May 14
Full
May 21
Last Quarter

Hourly Weather History & Observations

Time (CDT) Temp. Heat Index Dew Point Humidity Pressure Visibility Wind Dir Wind Speed Gust Speed Precip Events Conditions
12:15 AM 71.8 °F - 45.5 °F 39% 30.06 in 10.0 mi ENE 13.8 mph - N/A   Clear
12:35 AM 71.6 °F - 46.6 °F 41% 30.07 in 10.0 mi East 13.8 mph - N/A   Clear
12:55 AM 71.2 °F - 46.9 °F 42% 30.07 in 10.0 mi East 16.1 mph 23.0 mph N/A   Clear
1:15 AM 71.6 °F - 47.3 °F 42% 30.07 in 10.0 mi East 19.6 mph - N/A   Clear
1:35 AM 71.1 °F - 47.8 °F 44% 30.07 in 10.0 mi East 18.4 mph 25.3 mph N/A   Clear
1:55 AM 70.2 °F - 48.2 °F 46% 30.07 in 10.0 mi East 19.6 mph 23.0 mph N/A   Clear
2:15 AM 70.0 °F - 48.4 °F 46% 30.07 in 10.0 mi East 16.1 mph 24.2 mph N/A   Clear
2:35 AM 69.4 °F - 48.7 °F 48% 30.07 in 10.0 mi East 17.3 mph 24.2 mph N/A   Clear
2:55 AM 68.9 °F - 49.1 °F 49% 30.07 in 10.0 mi East 13.8 mph - N/A   Clear
3:15 AM 67.6 °F - 49.1 °F 51% 30.07 in 10.0 mi East 11.5 mph - N/A   Clear
3:35 AM 67.1 °F - 49.6 °F 53% 30.07 in 10.0 mi East 10.4 mph - N/A   Clear
3:55 AM 66.0 °F - 49.6 °F 55% 30.08 in 10.0 mi East 11.5 mph - N/A   Clear
4:15 AM 65.3 °F - 50.2 °F 58% 30.09 in 10.0 mi East 6.9 mph - N/A   Clear
4:35 AM 64.4 °F - 50.7 °F 61% 30.09 in 10.0 mi ENE 4.6 mph - N/A   Clear
4:55 AM 64.2 °F - 50.7 °F 61% 30.09 in 10.0 mi East 4.6 mph - N/A   Clear
5:15 AM 62.8 °F - 50.9 °F 65% 30.09 in 10.0 mi ENE 6.9 mph - N/A   Clear
5:35 AM 62.1 °F - 51.3 °F 68% 30.09 in 10.0 mi ENE 5.8 mph - N/A   Clear
5:55 AM 61.9 °F - 51.6 °F 69% 30.09 in 10.0 mi ENE 6.9 mph - N/A   Clear
6:15 AM 61.7 °F - 51.8 °F 70% 30.09 in 10.0 mi ENE 5.8 mph - N/A   Clear
6:35 AM 61.7 °F - 51.8 °F 70% 30.09 in 10.0 mi ENE 8.1 mph - N/A   Clear
6:55 AM 60.8 °F - 51.8 °F 72% 30.09 in 10.0 mi ENE 8.1 mph - N/A   Clear
7:15 AM 60.1 °F - 51.8 °F 74% 30.10 in 10.0 mi ENE 6.9 mph - N/A   Clear
7:35 AM 59.9 °F - 51.8 °F 75% 30.11 in 10.0 mi ENE 5.8 mph - N/A   Clear
7:55 AM 61.2 °F - 52.7 °F 74% 30.11 in 10.0 mi ENE 6.9 mph - N/A   Clear
8:15 AM 62.8 °F - 53.2 °F 71% 30.12 in 10.0 mi NE 6.9 mph - N/A   Clear
8:35 AM 64.4 °F - 53.6 °F 68% 30.12 in 10.0 mi ENE 6.9 mph - N/A   Clear
8:55 AM 66.2 °F - 54.5 °F 66% 30.12 in 10.0 mi East 9.2 mph - N/A   Clear
9:15 AM 67.5 °F - 56.3 °F 67% 30.13 in 10.0 mi East 6.9 mph - N/A   Clear
9:35 AM 68.5 °F - 57.6 °F 68% 30.12 in 10.0 mi East 8.1 mph - N/A   Clear
9:55 AM 69.4 °F - 58.1 °F 67% 30.12 in 10.0 mi ENE 5.8 mph - N/A   Clear
10:15 AM 70.7 °F - 58.1 °F 64% 30.13 in 10.0 mi East 8.1 mph - N/A   Clear
10:35 AM 72.5 °F - 58.1 °F 60% 30.13 in 10.0 mi ENE 8.1 mph - N/A   Clear
10:55 AM 73.8 °F - 58.3 °F 58% 30.12 in 10.0 mi ENE 6.9 mph - N/A   Clear
11:15 AM 75.4 °F - 57.2 °F 53% 30.12 in 10.0 mi ESE 9.2 mph - N/A   Clear
11:35 AM 77.0 °F - 56.3 °F 49% 30.11 in 10.0 mi ESE 10.4 mph 16.1 mph N/A   Clear
11:55 AM 78.1 °F - 56.3 °F 47% 30.10 in 10.0 mi ESE 11.5 mph 17.3 mph N/A   Clear
12:15 PM 79.3 °F - 55.9 °F 44% 30.09 in 10.0 mi East 15.0 mph 19.6 mph N/A   Clear
12:35 PM 81.0 °F 80.7 °F 55.4 °F 41% 30.07 in 10.0 mi ESE 9.2 mph - N/A   Clear
12:55 PM 81.3 °F 80.9 °F 55.0 °F 40% 30.07 in 10.0 mi East 10.4 mph 18.4 mph N/A   Clear
1:15 PM 82.8 °F 81.7 °F 53.8 °F 37% 30.05 in 10.0 mi East 12.7 mph 18.4 mph N/A   Clear
1:35 PM 84.0 °F 82.6 °F 53.8 °F 35% 30.04 in 10.0 mi ESE 15.0 mph 20.7 mph N/A   Clear
1:55 PM 84.4 °F 82.9 °F 53.6 °F 35% 30.03 in 10.0 mi ESE 11.5 mph 19.6 mph N/A   Clear
2:15 PM 86.0 °F - 52.9 °F 32% 30.02 in 10.0 mi East 13.8 mph 19.6 mph N/A   Clear
2:35 PM 86.5 °F 84.6 °F 53.4 °F 32% 30.00 in 10.0 mi SE 13.8 mph 20.7 mph N/A   Clear
2:55 PM 86.4 °F - 52.5 °F 31% 29.99 in 10.0 mi East 10.4 mph 16.1 mph N/A   Clear
3:15 PM 87.1 °F - 50.9 °F 29% 29.97 in 10.0 mi East 16.1 mph 21.9 mph N/A   Clear
3:35 PM 88.2 °F - 49.1 °F 26% 29.96 in 10.0 mi ESE 8.1 mph 23.0 mph N/A   Clear
3:55 PM 88.2 °F - 48.0 °F 25% 29.95 in 10.0 mi ESE 18.4 mph 25.3 mph N/A   Clear
4:15 PM 89.4 °F - 47.1 °F 23% 29.93 in 10.0 mi ESE 15.0 mph 20.7 mph N/A   Clear
4:35 PM 88.3 °F - 46.4 °F 23% 29.92 in 10.0 mi East 11.5 mph 24.2 mph N/A   Clear
4:55 PM 86.9 °F - 45.7 °F 24% 29.91 in 10.0 mi East 19.6 mph 25.3 mph N/A Thunderstorm Clear
5:15 PM 85.1 °F - 46.2 °F 26% 29.91 in 10.0 mi SE 11.5 mph - N/A Thunderstorm Clear
5:35 PM 67.1 °F - 53.1 °F 61% 29.95 in 5.0 mi WSW 29.9 mph 39.1 mph 0.01 in Rain , Thunderstorm Heavy Thunderstorms and Rain
5:55 PM 61.5 °F - 52.9 °F 73% 29.95 in 0.8 mi East 20.7 mph 27.6 mph 0.56 in Rain , Thunderstorm Heavy Thunderstorms and Rain
6:15 PM 66.4 °F - 52.5 °F 61% 29.92 in 4.0 mi NNE 16.1 mph - 0.14 in Rain , Thunderstorm Heavy Thunderstorms and Rain
6:35 PM 68.2 °F - 51.4 °F 55% 29.91 in 10.0 mi East 18.4 mph 23.0 mph 0.15 in Rain Light Rain
6:55 PM 70.5 °F - 51.6 °F 51% 29.90 in 10.0 mi East 18.4 mph - 0.15 in   Scattered Clouds
7:15 PM 72.5 °F - 52.0 °F 48% 29.88 in 10.0 mi ENE 18.4 mph - N/A   Clear
7:35 PM 73.2 °F - 52.9 °F 49% 29.87 in 10.0 mi East 15.0 mph - N/A   Clear
7:55 PM 72.7 °F - 52.0 °F 48% 29.86 in 10.0 mi East 10.4 mph - N/A   Clear
8:15 PM 71.6 °F - 53.4 °F 53% 29.86 in 10.0 mi East 9.2 mph - N/A   Clear
8:35 PM 70.2 °F - 54.0 °F 56% 29.86 in 10.0 mi East 10.4 mph - N/A   Clear
8:55 PM 69.8 °F - 54.3 °F 58% 29.86 in 10.0 mi East 9.2 mph - N/A   Clear
9:15 PM 68.9 °F - 54.7 °F 60% 29.86 in 10.0 mi East 10.4 mph - N/A   Clear
9:35 PM 68.5 °F - 54.5 °F 61% 29.86 in 10.0 mi ESE 9.2 mph - N/A   Clear
9:55 PM 67.3 °F - 54.5 °F 63% 29.86 in 10.0 mi East 8.1 mph - N/A   Clear
10:15 PM 67.1 °F - 53.6 °F 62% 29.87 in 10.0 mi ESE 8.1 mph - N/A   Clear
10:35 PM 66.4 °F - 52.9 °F 62% 29.88 in 10.0 mi ESE 6.9 mph - N/A   Clear
10:55 PM 65.5 °F - 52.7 °F 63% 29.88 in 10.0 mi ESE 8.1 mph - N/A   Clear
11:15 PM 64.9 °F - 51.4 °F 62% 29.88 in 10.0 mi SE 8.1 mph - N/A   Clear
11:35 PM 66.0 °F - 50.0 °F 56% 29.88 in 10.0 mi ESE 8.1 mph - N/A   Clear
11:55 PM 65.5 °F - 49.3 °F 56% 29.88 in 10.0 mi SE 8.1 mph - N/A   Clear